Date,TemperatureHighF,TemperatureAvgF,TemperatureLowF,DewpointHighF,DewpointAvgF,DewpointLowF,HumidityHigh,HumidityAvg,HumidityLow,PressureMaxIn,PressureMinIn,WindSpeedMaxMPH,WindSpeedAvgMPH,GustSpeedMaxMPH,PrecipitationSumIn
2013-3-1,31,27,25,28,26,23,99,93,80,30.31,30.15,15,10,17,0.00
2013-3-2,33,24,6,24,18,6,99,78,54,30.34,30.28,14,7,17,0.00
2013-3-3,39,23,2,25,16,1,99,76,51,30.28,30.08,12,4,14,0.00
2013-3-4,39,34,29,32,30,24,99,88,73,30.09,29.85,22,15,25,0.00
2013-3-5,34,31,29,32,28,24,99,90,76,30.22,29.93,25,14,34,0.01
2013-3-6,34,25,16,25,22,15,99,86,67,30.42,30.23,18,9,25,0.00
2013-3-7,37,29,22,29,25,21,99,84,66,30.48,30.38,10,6,12,0.00
2013-3-8,44,35,25,36,31,25,99,87,70,30.45,30.23,12,8,15,0.00
2013-3-9,52,40,35,42,38,34,99,92,66,30.22,29.80,14,9,17,0.80
2013-3-10,50,45,38,50,45,38,99,99,89,29.84,29.62,18,5,24,0.67
2013-3-11,38,33,30,38,32,26,99,96,83,30.02,29.74,20,15,25,0.02
2013-3-12,39,31,26,32,27,21,95,83,69,30.27,30.01,28,15,35,0.02
2013-3-13,39,30,23,26,21,17,99,71,47,30.48,30.27,18,11,31,0.00
2013-3-14,56,39,25,44,31,24,99,75,50,30.43,30.14,14,5,17,0.00
2013-3-15,62,45,30,52,40,30,99,83,62,30.14,29.74,12,4,14,0.00
2013-3-16,44,38,35,44,36,34,99,94,84,30.17,29.71,21,11,24,0.00
2013-3-17,34,33,32,33,32,31,97,96,94,30.18,30.16,16,14,19,0.00
2013-3-18,48,36,29,40,32,21,99,85,52,30.06,29.77,32,15,33,0.05
2013-3-19,43,32,24,24,19,13,75,58,37,30.26,30.04,21,12,30,0.00
2013-3-20,32,26,18,22,14,7,82,62,45,30.35,30.19,23,15,28,0.00
2013-3-21,36,26,14,22,16,11,89,68,44,30.19,30.05,12,6,14,0.00
2013-3-22,42,32,21,29,22,19,96,71,43,30.13,30.06,10,3,14,0.00
2013-3-23,51,40,32,35,30,27,99,71,45,30.14,29.97,23,9,27,0.00
2013-3-24,35,30,29,35,30,28,99,99,99,30.03,29.77,24,17,28,0.00
2013-3-25,34,30,28,31,28,26,99,93,73,30.25,29.92,16,10,21,0.02
2013-3-26,32,30,28,28,27,25,90,86,83,30.30,30.26,13,9,17,0.00
2013-3-27,51,36,21,35,27,21,99,72,39,30.45,30.36,6,2,6,0.00
2013-3-28,50,38,27,38,31,26,99,77,53,30.42,30.31,16,6,16,0.00
2013-3-29,63,46,33,46,38,32,99,77,40,30.35,30.24,14,5,14,0.00
2013-3-30,55,46,36,48,43,36,99,89,63,30.26,29.97,17,7,17,0.00
2013-3-31,63,51,40,52,44,32,99,78,43,30.07,29.91,23,11,23,0.00